OBJECT A, 62725

Orbit data source: Space-Track

You're viewing an Uncataloged Satellite

Recently launched and/or uncataloged satellites may have evolving metadata. Metadata may include but not limited to: Owner, Maufacturer, Bus, Motor, and Mission.

OBJECT A, 62725 is a satellite owned by SUPARCO (CN) in SSO that was launched on Fri, 17 Jan 2025 UTC via a CHANG ZHENG 2D launch vehicle from the Jiuquan Satellite Launch Center, China (JSC). Unknown objects in Earth's orbit typically refer to objects detected orbiting the Earth but have not yet been identified or cataloged. These objects could be anything from previously untracked satellites, spent rocket stages, debris from satellite collisions, or even natural meteoroids temporarily captured by Earth's gravity.

Loading next visibility...
OBJECT A details
Identifier
62725, 2025-012A
Orbit
SSO
Last TLE update8 hours ago
Origin
Flag of CNSUPARCO (CN / PRC)
ManufacturerSUPARCO
MissionOperational spacecraft
Bus & MotorPRSC-EO, Unknown motor
Mass~500 kg wet, ~500 kg dry
Launch date (UTC)
2025-01-17 (1 month ago)
Launch vehicle
CHANG ZHENG 2D
Launch site
Jiuquan Satellite Launch Center, China (JSC)
Object typeUnknown
Shape & HBRUnknown
Radar Cross SectionLarge (>1 m²)

Expand to show TLE details & history

TLE from 8 hours ago
0 OBJECT A
1 62725U 25012A   25047.14430096  .00018198  00000-0  97584-3 0  9990
2 62725  97.4748 122.5909 0010093 167.3606 192.7881 15.14981952  4491
Epoch: 2025-02-16T03:27Z
Definitive object data (Epoch: 2025-02-16T03:27:47.602Z)
Latitude-0.00007°
Longitude-75.73901°
Altitude530.907 km
Speed7.594 km/s
True Right ascension08h 10m 21s
True Declination0° 00' 00"
Sunlit
Object was in full shadow at TLE epoch
Visualization TLE readout
Latitude61.46213°
Longitude-89.28643°
Altitude533.205 km
Speed7.601 km/s
Apparent Right ascension04h 18m 52s
Apparent Declination16° 28' 40"
Sunlit
Object is in full shadow
Visualization observer readout
Local Sidereal Time14:26:11
Azimuth329.219° NNW
Elevation-27.798°
Doppler factor1
Orbital elements
Apogee altitude524.969 km
Perigee altitude511.049 km
Semi-major axis6,896.146 km
Eccentricity0.0010093
Inclination97.4748°
RAAN122.5909°
Arg. of periapsis167.3606°
True anomaly192.76253°
Mean anomaly192.7881°
Eccentric anomaly192.77531°
Mean motion3.78995 °/min
BSTAR0.00097584
Orbital period94.99 mins
Loading maneuver chart data...
Loading historical data...
Loading historical data...
Loading historical data...
Loading historical data...
Loading historical data...
Loading historical data...
Loading historical data...
Other satellites on launch #12 in the year 2025 (2025-01-17 UTC)

OBJECT A Visibility forecast

Observer location: undefined°, undefined

Span
Click to sort rows by Start time (UTC) header in descending order
Start Az.
Max El. time (UTC)
Max El. Az.
Max El.
End time (UTC)
End Az.
4 mins2025-02-16 18:18:47.417Z332.783° NNW2025-02-16 18:19:47.417Z305.634° NW29.293°2025-02-16 18:22:47.417Z227.506° WSW
6 mins2025-02-17 04:57:47.417Z167.094° S2025-02-17 04:59:47.417Z167.618° S43.329°2025-02-17 05:03:47.417Z348.011° N
|